Volver al catálogo

SL-6 R/B(2)

ActivoHEO
NORAD 15223·ROCKET BODY·🇷🇺 Russia

Lanzado Aug 24, 1984 desde Plesetsk Cosmodrome

Loading…

Próximos Pases (próximas 24 horas)

TLE

ActualizadoSource: Space-Track

Época: Sep 13, 2026, 20:47 UTC

1 15223U 84089D   26256.86605968 -.00000978  00000-0  50763-2 0  9999
2 15223  62.8995 242.7127 7233839 279.5013  12.1758  2.02620010  5687

Sigue SL-6 R/B(2) en tiempo real con AllMySat

Download on the App Store